Home   Weather   Kitakyushu   Past weeks
Flag for Japan

Past Weather in Kitakyushu, Japan — Yesterday and Last 2 Weeks

Now
50 °F

Passing clouds.


Feels Like: 47 °F
Forecast: 55 / 47 °F
Wind: 8 mph from Northeast

Location: Kitakyushu Airport

Current Time: Mar 30, 2020 at 1:30:06 am

Latest Report: Mar 30, 2020 at 12:00 am


Visibility: N/A

Pressure: 30.09 "Hg

Humidity: 71%

Dew Point: 41 °F

Location of KitakyushuLocation

Past Weather in Kitakyushu — Graph

°F

Kitakyushu Temperature Yesterday

Maximum temperature yesterday: 59 °F (at 3:00 pm)
Minimum temperature yesterday: 46 °F (at 6:00 am)
Average temperature yesterday: 53 °F

High & Low Weather Summary for the Past Weeks

 TemperatureHumidityPressure
High63 °F (Mar 17, 2:00 pm)100% (Mar 26, 7:00 pm)30.21 "Hg (Mar 26, 7:00 pm)
Low39 °F (Mar 16, 6:00 am)30% (Mar 23, 2:00 pm)29.65 "Hg (Mar 19, 5:00 pm)
Average54 °F70%29.98 "Hg
* Reported Mar 15 12:00 am — Mar 30 12:00 am, Kitakyushu. Weather by CustomWeather, © 2020

Note: Actual official high and low records may vary slightly from our data, if they occured in-between our weather recording intervals... More about our weather records

Kitakyushu Weather History for the Previous 24 Hours

Scroll right to see more
 ConditionsComfort  
Time TempWeatherWind HumidityBarometerVisibility
12:00 am
Mon, Mar 30
50 °FPassing clouds.8 mph71%30.09 "HgN/A
11:00 pm
Sun, Mar 29
52 °FPartly cloudy.10 mph67%30.09 "HgN/A
10:00 pm52 °FPassing clouds.14 mph67%30.09 "HgN/A
9:00 pm52 °FPartly cloudy.15 mph62%30.09 "HgN/A
8:00 pm52 °FPartly cloudy.15 mph67%30.09 "HgN/A
7:00 pm52 °FPassing clouds.20 mph62%30.07 "HgN/A
6:00 pm54 °FPartly sunny.20 mph58%30.09 "HgN/A
5:00 pm55 °FPartly sunny.20 mph55%30.04 "HgN/A
4:00 pm57 °FPartly sunny.17 mph55%30.04 "HgN/A
3:00 pm59 °FPartly sunny.16 mph51%30.04 "HgN/A
2:00 pm57 °FPartly sunny.6 mph48%30.04 "HgN/A
1:00 pm57 °FPartly sunny.8 mph48%30.04 "HgN/A
12:00 pm55 °FScattered clouds.6 mph51%30.07 "HgN/A
11:00 am55 °FScattered clouds.10 mph47%30.09 "HgN/A
10:00 am55 °FPartly sunny.18 mph55%30.09 "HgN/A
9:00 am52 °FPartly sunny.10 mph62%30.12 "HgN/A
8:00 am52 °FPartly sunny.14 mph58%30.09 "HgN/A
7:00 am50 °FPassing clouds.8 mph71%30.09 "HgN/A
6:00 am46 °FPassing clouds.9 mph82%30.07 "HgN/A
5:00 am48 °FPassing clouds.13 mph71%30.07 "HgN/A
4:00 am50 °FPassing clouds.13 mph71%30.04 "HgN/A
3:00 am50 °FPassing clouds.12 mph76%30.04 "HgN/A
2:00 am50 °FPartly cloudy.13 mph76%30.01 "HgN/A
1:00 am50 °FPartly cloudy.14 mph76%30.01 "HgN/A
Weather by CustomWeather, © 2020

See weather overview

Advertising